Weather History for Tallahassee, FL

Change the Weather History Date:

Thursday, February 28, 2013

  Actual Average Record
Temperature  
Mean Temperature 53 °F 57 °F  
Max Temperature 67 °F 71 °F 89 °F (1948)
Min Temperature 38 °F 44 °F 18 °F (2002)
Degree Days  
Heating Degree Days 12    
Month to date heating degree days 260  
Since 1 July heating degree days 978  
Cooling Degree Days 0    
Month to date cooling degree days 16  
Year to date cooling degree days 50  
Growing Degree Days 2 (Base 50)    
Moisture  
Dew Point 33 °F    
Average Humidity 56    
Maximum Humidity 92    
Minimum Humidity 19    
Precipitation  
Precipitation 0.00 in 0.18 in 1.70 in (1966)
Month to date precipitation 12.36 4.85  
Year to date precipitation 13.21 9.19  
Sea Level Pressure  
Sea Level Pressure 29.97 in    
Wind  
Wind Speed 7 mph (NW)    
Max Wind Speed 18 mph    
Max Gust Speed 25 mph    
Visibility 10 miles    
Events Fog    
T = Trace of Precipitation, MM = Missing Value Source: NWS Daily Summary

Daily Weather History Graph

Daily Weather History Graph

Search for Another Location

Airport:

Trip Planner

Search our weather history database for the weather conditions in past years. The results will help you decide how hot, cold, wet, or windy it might be!

Date:

Astronomy

Feb. 28, 2013 Rise Set
Actual Time 7:04 AM EST 6:35 PM EST
Civil Twilight 6:40 AM EST 6:59 PM EST
Nautical Twilight 6:12 AM EST 7:27 PM EST
Astronomical Twilight 5:44 AM EST 7:55 PM EST
Moon 9:42 PM EST 8:29 AM EST
Length of Visible Light 12h 19m
Length of Day
11h 31m
Waning Gibbous, 91% of the Moon is Illuminated
Feb 28
Waning Gibbous
Mar 4
Last Quarter
Mar 11
New
Mar 19
First Quarter
Mar 27
Full

Hourly Weather History & Observations

Time (EST) Temp. Dew Point Humidity Pressure Visibility Wind Dir Wind Speed Gust Speed Precip Events Conditions
12:53 AM 44.1 °F 39.9 °F 85% 29.96 in 10.0 mi Calm Calm - N/A   Clear
1:53 AM 42.8 °F 37.4 °F 81% 29.96 in 10.0 mi Calm Calm - N/A   Clear
2:53 AM 41.0 °F 37.0 °F 86% 29.95 in 10.0 mi Calm Calm - N/A   Clear
3:53 AM 39.9 °F 36.0 °F 86% 29.95 in 10.0 mi Calm Calm - N/A   Clear
4:53 AM 39.9 °F 37.0 °F 89% 29.95 in 10.0 mi Calm Calm - N/A   Clear
5:53 AM 39.0 °F 36.0 °F 89% 29.96 in 10.0 mi Calm Calm - N/A   Clear
6:53 AM 39.0 °F 36.0 °F 89% 29.97 in 10.0 mi Calm Calm - N/A Fog Patches of Fog
7:53 AM 42.1 °F 39.0 °F 89% 30.00 in 10.0 mi Calm Calm - N/A   Clear
8:53 AM 53.6 °F 39.2 °F 58% 30.02 in 10.0 mi NNW 10.4 mph - N/A   Clear
9:53 AM 55.9 °F 36.0 °F 47% 30.02 in 10.0 mi North 11.5 mph - N/A   Clear
10:53 AM 59.0 °F 35.1 °F 41% 30.01 in 10.0 mi NW 13.8 mph 19.6 mph N/A   Clear
11:53 AM 60.1 °F 33.1 °F 36% 30.00 in 10.0 mi NW 10.4 mph 16.1 mph N/A   Clear
12:53 PM 63.0 °F 34.0 °F 34% 29.98 in 10.0 mi West 13.8 mph 18.4 mph N/A   Clear
1:53 PM 66.0 °F 30.0 °F 26% 29.95 in 10.0 mi West 16.1 mph 21.9 mph N/A   Partly Cloudy
2:53 PM 64.0 °F 27.0 °F 25% 29.93 in 10.0 mi WNW 10.4 mph 23.0 mph N/A   Clear
3:53 PM 66.0 °F 26.1 °F 22% 29.93 in 10.0 mi WNW 16.1 mph 23.0 mph N/A   Clear
4:53 PM 66.0 °F 23.0 °F 20% 29.94 in 10.0 mi WNW 9.2 mph 20.7 mph N/A   Clear
5:53 PM 62.1 °F 23.0 °F 22% 29.94 in 10.0 mi NW 9.2 mph 18.4 mph N/A   Clear
6:53 PM 59.0 °F 27.0 °F 29% 29.95 in 10.0 mi NW 5.8 mph - N/A   Clear
7:53 PM 57.2 °F 28.4 °F 33% 29.96 in 10.0 mi NW 8.1 mph - N/A   Clear
8:53 PM 55.9 °F 28.9 °F 36% 29.97 in 10.0 mi NW 8.1 mph - N/A   Clear
9:53 PM 55.0 °F 30.9 °F 40% 29.99 in 10.0 mi WNW 5.8 mph - N/A   Clear
10:53 PM 54.0 °F 30.0 °F 40% 29.99 in 10.0 mi NNW 9.2 mph - N/A   Clear
11:53 PM 52.0 °F 28.0 °F 40% 30.01 in 10.0 mi NW 9.2 mph - N/A   Clear